Regional Weather Roundup
Issued by NWS Jackson, KY

Home | Current Version | Previous Version | Graphics & Text | Print | Product List | Glossary On
Versions: 1 2 3 4 5 6 7 8 9 10 11 12 13 14 15 16 17 18 19 20 21 22 23 24 25 26 27 28 29 30 31 32 33 34 35 36 37 38 39 40 41 42 43 44 45 46 47 48 49 50
000
ASUS43 KJKL 060610
RWRJKL

EAST KENTUCKY HOURLY WEATHER ROUNDUP
NATIONAL WEATHER SERVICE JACKSON KY
100 AM EST SAT FEB 06 2016

NOTE: "FAIR" INDICATES FEW OR NO CLOUDS BELOW 12,000 FEET WITH
NO SIGNIFICANT WEATHER AND/OR OBSTRUCTIONS TO VISIBILITY.

* THESE REPORTS ARE NOT UNDER NWS QUALITY CONTROL AND MAY NOT
  REPORT WEATHER SUCH AS PRECIPITATION AND FOG.

KYZ079-080-083-085-087-088-110-112-115-119-120-060700
...EASTERN KENTUCKY...

CITY           SKY/WX    TMP DP  RH WIND       PRES   REMARKS
JACKSON        CLOUDY    31  14  49 S3        30.35S
6HR MIN TEMP:  31; 6HR MAX TEMP:  37;

LONDON         CLOUDY    27  20  75 CALM      30.36F
6HR MIN TEMP:  27; 6HR MAX TEMP:  36;

SOMERSET*      PTCLDY    28  21  74 CALM      30.39S
MONTICELLO*    CLOUDY    27  20  75 W3        30.38S
6HR MIN TEMP:  25; 6HR MAX TEMP:  31;

WILLIAMSBURG*  CLOUDY    28  23  80 SE7       30.37F WCI  21
MIDDLESBORO*   PTCLDY    27  23  84 CALM      30.40S
6HR MIN TEMP:  27; 6HR MAX TEMP:  36;

HARLAN APT*      N/A     28  21  74 CALM      30.37S
HAZARD APT*    CLEAR    N/A N/A N/A CALM      30.36F
BLACK MTN*       N/A     23  14  68 S5          N/A  WCI  17
BIG SANDY*     CLOUDY    32  17  54 CALM      30.36S
6HR MIN TEMP:  32; 6HR MAX TEMP:  36;

MOREHEAD APT*  CLOUDY    30  18  59 S6        30.36S WCI  24
$$

KYZ035-036-041-042-044-050-067-078-099-060700
...CENTRAL KENTUCKY...

CITY           SKY/WX    TMP DP  RH WIND       PRES   REMARKS
MT STERLING*   CLOUDY    32  19  59 SW6       30.36S WCI  26
DANVILLE*      PTCLDY    30  19  64 SW3       30.37S
RICHMOND*      PTCLDY    34  16  47 S6        30.35S WCI  29
LEXINGTON      PTCLDY    32  18  56 S8        30.34S WCI  25
6HR MIN TEMP:  32; 6HR MAX TEMP:  37;

FRANKFORT      CLOUDY    32  17  54 SW5       30.33S WCI  27
6HR MIN TEMP:  30; 6HR MAX TEMP:  38;

$$

KYZ091>093-OHZ055-061-077-WVZ005-015-034-035-042-060700
...SOUTHERN OHIO/WEST VIRGINIA...

CITY           SKY/WX    TMP DP  RH WIND       PRES   REMARKS
COVINGTON      PTCLDY    29  24  82 NW5       30.33S WCI  24
COLUMBUS       PTCLDY    31  17  56 SW3       30.31R
DAYTON         CLOUDY    27  24  89 W3        30.32R
WILMINGTON     CLOUDY    28  20  71 SW5       30.31S WCI  23
HUNTINGTON       N/A     27  18  69 CALM      30.36F
CHARLESTON       N/A     27  20  75 CALM      30.36F
PINEVILLE*       N/A     24  19  82 MISG      30.41R
BECKLEY          N/A     23  14  68 CALM      30.32S
$$

VAZ002-007-008-TNZ017-027-036-066-071-060700
...SOUTHWEST VIRGINIA/EAST TENNESSEE...

CITY           SKY/WX    TMP DP  RH WIND       PRES   REMARKS
BRISTOL        CLOUDY    26  20  77 CALM      30.38S
KNOXVILLE      CLOUDY    30  23  75 CALM      30.39R
OAK RIDGE      CLOUDY    30  23  75 CALM      30.41S
CROSSVILLE     PTCLDY    29  15  56 SE5       30.35F WCI  24
NASHVILLE      MOCLDY    36  20  52 CALM      30.38S
$$

...KEY TO REMARKS...
VSB - VISIBILITY IN MILES
WCI - WIND CHILL INDEX
HX  - HEAT INDEX

$$



USA.gov is the U.S. government's official web portal to all federal, state and local government web resources and services.